Regional Weather Roundup
Issued by NWS

Home | Current Version | Previous Version | Graphics & Text | Print | Product List | Glossary On
Versions: 1 2 3 4 5 6 7 8 9 10 11 12 13 14 15 16 17 18 19 20 21 22 23 24 25 26 27 28 29 30 31 32 33 34 35 36 37 38 39 40 41 42 43 44 45 46 47 48 49 50
000
ASUS45 KSLC 311810
RWRUT

UTAH REGIONAL WEATHER ROUNDUP
NATIONAL WEATHER SERVICE SALT LAKE CITY UT
1200 PM MDT FRI JUL 31 2015

UTZ001>011-023>025-311900-

NORTHERN UTAH

CITY           SKY/WX    TMP DP  RH WIND       PRES   REMARKS
BRIGHAM CITY   SUNNY     80  32  17 CALM      30.26S
HILL AFB       SUNNY     82  35  18 N8        30.28S
LOGAN          SUNNY     77  35  21 VRB3      30.28F
OGDEN          SUNNY     84  38  19 NW6       30.26S
PROVO AIRPORT  MOSUNNY   79  43  27 VRB6      30.28S
SALT LAKE CITY MOSUNNY   86  34  15 NW5       30.24S
VERNAL         SUNNY     81  19  10 CALM      30.30F
WENDOVER       SUNNY     86  34  15 E9        30.24S
HEBER CITY     SUNNY     77  32  19 CALM      30.34F
WEST JORDAN    SUNNY     82  37  20 CALM      30.28S

$$

UTZ012>022-026-027-311900-

SOUTHERN/CENTRAL UTAH

CITY           SKY/WX    TMP DP  RH WIND       PRES   REMARKS
BLANDING       PTSUNNY   76  54  46 CALM      30.44F
BRYCE CANYON   PTSUNNY   75  46  35 CALM      30.48F
CEDAR CITY     CLOUDY    84  46  26 SW10      30.32S
DELTA          MOSUNNY   87  24  10 E3        30.26F
HANKSVILLE     MOSUNNY   88  46  23 S3        30.24F
MILFORD        PTSUNNY   88  26  10 NE8       30.27F
MOAB/CYNLANDS  SUNNY     88  50  27 VRB5      30.23F
PRICE          SUNNY     85  26  11 SE8       30.34F
ST GEORGE      CLEAR     91  52  25 NW8       30.13F

$$

REGIONAL REPORTS     COLORADO/ARIZONA

CITY           SKY/WX    TMP DP  RH WIND       PRES   REMARKS
CRAIG, CO      SUNNY     86  36  16 VRB6      30.35F
GRAND JUNCTION SUNNY     85  42  22 VRB5      30.26F
RIFLE          SUNNY     84  34  16 W8        30.30F
MONTROSE       MOSUNNY   83  44  25 CALM      30.34F
CORTEZ         MOSUNNY   74  57  55 SW5       30.37F
PAGE, AZ       PTSUNNY   89  54  30 NE8       30.22F
GRAND CANYON   PTSUNNY   78  49  35 S3        30.40S
KINGMAN        SUNNY     92  53  26 VRB5      30.15S
FLAGSTAFF      SUNNY     77  48  35 SE8       30.42F

$$

REGIONAL REPORTS    NEVADA/IDAHO/WYOMING

CITY           SKY/WX    TMP DP  RH WIND       PRES   REMARKS
LAS VEGAS, NV  MOSUNNY   97  51  21 E10       30.01S HX  94
ELY            MOSUNNY   85  23  10 N13       30.37F
ELKO           SUNNY     83  28  13 CALM      30.29F
POCATELLO, ID  SUNNY     81  41  24 NW5       30.29F
BURLEY         SUNNY     82  42  24 CALM      30.25F
EVANSTON, WY   MOSUNNY   79  26  14 N12       30.44F
ROCK SPRINGS   SUNNY     76  31  19 VRB3      30.41F
KEMMERER       SUNNY     79  21  11 W13       30.45F

$$



USA.gov is the U.S. government's official web portal to all federal, state and local government web resources and services.